Aviation Digital Data Service (ADDS)

Output produced by METARs form (1339 UTC 20 August 2017)
found at http://www.aviationweather.gov/adds/metars/
 
OPLA 201330Z 07007KT 7000 SCT040 32/24 Q1002/A29.60
TAF OPLA 200945Z 2012/2118 12008KT 4000 FU FEW040 SCT100 TX34/2110Z TN27/2100Z 
     PROB30 
     TEMPO 2018/2024 03010G20KT 2000 TSRA FEW030CB SCT040 BKN100 FM 210800 10008KT 5000 HZ SCT100
       
TAF OPBW 200957Z 2012/2106 36010KT 4000 FU SCT120 TN27/2101Z 
     PROB30 
     TEMPO 2100/2104 05005KT 2500 FU FEW120
       
TAF OPBW 200957Z 2012/2106 36010KT 4000 FU SCT120 TN27/2101Z 
     PROB30 
     TEMPO 2100/2104 05005KT 2500 FU FEW120
       
TAF OPDG 200957Z 2012/2106 05010KT 5000 FU SCT120 TN27/1701Z
       
TAF OPGD 2012/2112 23005G15KT 4000 HZ SCT020 
     FM201800 23005KT 3000 FU BKN020 
     TEMPO 2100/2104 VRB03KT 2000 FU BKN020 
     FM210500 21008G18KT 5000 HZ SCT020
       
OPKC 201325Z 23006KT 6000 FEW100 31/23 Q1001 NOSIG
TAF OPKC 201000Z 2012/2118 24005G15KT 6000 SCT025 SCT100 
     FM201900 26005G15KT 5000 HZ BKN020 
     BECMG 2105/2107 24005G15KT 6000 SCT025 SCT100
       
OPLA 201330Z 07007KT 7000 SCT040 32/24 Q1002/A29.60
TAF OPLA 200945Z 2012/2118 12008KT 4000 FU FEW040 SCT100 TX34/2110Z TN27/2100Z 
     PROB30 
     TEMPO 2018/2024 03010G20KT 2000 TSRA FEW030CB SCT040 BKN100 FM 210800 10008KT 5000 HZ SCT100
       
OPMT 201300Z 09006KT 3500 FU NSC 36/25 Q1000 NOSIG
TAF OPMT 200957Z 2012/2106 05010KT 4000 FU SCT120 TN29/1701Z
       
OPNH 201200Z 18006KT 5000M HZ NSC 40/24 Q.0998 NOSIG
TAF OPNH 201000Z 2012/2118 16005KT 5000 HZ SCT030 
     FM201800 18007KT 4000 HZ SCT020 SCT100 
     TEMPO 2100/2104 VRB03KT 4000 HZ SCT030 SCT100 
     FM210500 09005G15KT 5000 HZ SCT030 
     BECMG 2112/2114 13007KT 4000 HZ SCT030 SCT100
       
OPPS 201300Z 05006KT 4000 HZ FEW040 34/22 Q1002
TAF OPPS 200936Z 2012/2118 05012KT 4000 HZ SCT040 SCT100 
     TEMPO 2012/2014 FEW030TCU SCT040 BKN100 
     TEMPO 2014/2018 05015G25KT TS FEW030CB SCT040 BKN100 
     TEMPO 2109/2112 FEW030TCU SCT040 BKN100 
     TEMPO 2112/2115 VCTS FEW030TCU SCT040 BKN100
       
TAF OPRK 200957Z 2012/2106 36010KT 4000 FU FEW120 TN26/2101Z
       
OPRN 201300Z 18008KT 9999 SCT040 32/23 Q1004.7/29.67
TAF OPRN 200930Z 2012/2118 09010KT 400 VCTS FEW030TCU SCT040 SCT100 
     TEMPO 2018/2103 11010G25KT 4000 TSRA FEW030CB SCT040 SCT100 
     BECMG 2104/2106 12010KT 6000 SCT040 SCT100 
     TEMPO 2112/2116 VCTS FEW030TCU SCT040 SCT100
       
OPSK 201300Z 00000KT 4000 HZ NSC 40/26 Q0998 NOSIG
TAF OPSK 201000Z 2012/2112 13007KT 5000 HZ NSC 
     FM2016000 06005KT 4000 HZ NSC 
     BECMG 2105/2107 09005G15KT 5000 HZ NSC
       
OPST 201300Z 13006KT 5000 FU FEW040 32/24 Q1003 NOSIG RH66
TAF OPBW 200957Z 2012/2106 36010KT 4000 FU SCT120 TN27/2101Z 
     PROB30 
     TEMPO 2100/2104 05005KT 2500 FU FEW120
       
TAF OPDG 200957Z 2012/2106 05010KT 5000 FU SCT120 TN27/1701Z
       
TAF OPGD 2012/2112 23005G15KT 4000 HZ SCT020 
     FM201800 23005KT 3000 FU BKN020 
     TEMPO 2100/2104 VRB03KT 2000 FU BKN020 
     FM210500 21008G18KT 5000 HZ SCT020
       
OPKC 201325Z 23006KT 6000 FEW100 31/23 Q1001 NOSIG
TAF OPKC 201000Z 2012/2118 24005G15KT 6000 SCT025 SCT100 
     FM201900 26005G15KT 5000 HZ BKN020 
     BECMG 2105/2107 24005G15KT 6000 SCT025 SCT100
       
OPLA 201330Z 07007KT 7000 SCT040 32/24 Q1002/A29.60
TAF OPLA 200945Z 2012/2118 12008KT 4000 FU FEW040 SCT100 TX34/2110Z TN27/2100Z 
     PROB30 
     TEMPO 2018/2024 03010G20KT 2000 TSRA FEW030CB SCT040 BKN100 FM 210800 10008KT 5000 HZ SCT100
       
OPMT 201300Z 09006KT 3500 FU NSC 36/25 Q1000 NOSIG
TAF OPMT 200957Z 2012/2106 05010KT 4000 FU SCT120 TN29/1701Z
       
OPNH 201200Z 18006KT 5000M HZ NSC 40/24 Q.0998 NOSIG
TAF OPNH 201000Z 2012/2118 16005KT 5000 HZ SCT030 
     FM201800 18007KT 4000 HZ SCT020 SCT100 
     TEMPO 2100/2104 VRB03KT 4000 HZ SCT030 SCT100 
     FM210500 09005G15KT 5000 HZ SCT030 
     BECMG 2112/2114 13007KT 4000 HZ SCT030 SCT100
       
OPPS 201300Z 05006KT 4000 HZ FEW040 34/22 Q1002
TAF OPPS 200936Z 2012/2118 05012KT 4000 HZ SCT040 SCT100 
     TEMPO 2012/2014 FEW030TCU SCT040 BKN100 
     TEMPO 2014/2018 05015G25KT TS FEW030CB SCT040 BKN100 
     TEMPO 2109/2112 FEW030TCU SCT040 BKN100 
     TEMPO 2112/2115 VCTS FEW030TCU SCT040 BKN100
       
TAF OPRK 200957Z 2012/2106 36010KT 4000 FU FEW120 TN26/2101Z
       
OPRN 201300Z 18008KT 9999 SCT040 32/23 Q1004.7/29.67
TAF OPRN 200930Z 2012/2118 09010KT 400 VCTS FEW030TCU SCT040 SCT100 
     TEMPO 2018/2103 11010G25KT 4000 TSRA FEW030CB SCT040 SCT100 
     BECMG 2104/2106 12010KT 6000 SCT040 SCT100 
     TEMPO 2112/2116 VCTS FEW030TCU SCT040 SCT100
       
OPSK 201300Z 00000KT 4000 HZ NSC 40/26 Q0998 NOSIG
TAF OPSK 201000Z 2012/2112 13007KT 5000 HZ NSC 
     FM2016000 06005KT 4000 HZ NSC 
     BECMG 2105/2107 09005G15KT 5000 HZ NSC
       
OPST 201300Z 13006KT 5000 FU FEW040 32/24 Q1003 NOSIG RH66
OPRN 201300Z 18008KT 9999 SCT040 32/23 Q1004.7/29.67
TAF OPRN 200930Z 2012/2118 09010KT 400 VCTS FEW030TCU SCT040 SCT100 
     TEMPO 2018/2103 11010G25KT 4000 TSRA FEW030CB SCT040 SCT100 
     BECMG 2104/2106 12010KT 6000 SCT040 SCT100 
     TEMPO 2112/2116 VCTS FEW030TCU SCT040 SCT100
       
TAF OPBW 200957Z 2012/2106 36010KT 4000 FU SCT120 TN27/2101Z 
     PROB30 
     TEMPO 2100/2104 05005KT 2500 FU FEW120
       
TAF OPDG 200957Z 2012/2106 05010KT 5000 FU SCT120 TN27/1701Z
       
TAF OPGD 2012/2112 23005G15KT 4000 HZ SCT020 
     FM201800 23005KT 3000 FU BKN020 
     TEMPO 2100/2104 VRB03KT 2000 FU BKN020 
     FM210500 21008G18KT 5000 HZ SCT020
       
OPKC 201325Z 23006KT 6000 FEW100 31/23 Q1001 NOSIG
TAF OPKC 201000Z 2012/2118 24005G15KT 6000 SCT025 SCT100 
     FM201900 26005G15KT 5000 HZ BKN020 
     BECMG 2105/2107 24005G15KT 6000 SCT025 SCT100
       
OPLA 201330Z 07007KT 7000 SCT040 32/24 Q1002/A29.60
TAF OPLA 200945Z 2012/2118 12008KT 4000 FU FEW040 SCT100 TX34/2110Z TN27/2100Z 
     PROB30 
     TEMPO 2018/2024 03010G20KT 2000 TSRA FEW030CB SCT040 BKN100 FM 210800 10008KT 5000 HZ SCT100
       
OPMT 201300Z 09006KT 3500 FU NSC 36/25 Q1000 NOSIG
TAF OPMT 200957Z 2012/2106 05010KT 4000 FU SCT120 TN29/1701Z
       
OPNH 201200Z 18006KT 5000M HZ NSC 40/24 Q.0998 NOSIG
TAF OPNH 201000Z 2012/2118 16005KT 5000 HZ SCT030 
     FM201800 18007KT 4000 HZ SCT020 SCT100 
     TEMPO 2100/2104 VRB03KT 4000 HZ SCT030 SCT100 
     FM210500 09005G15KT 5000 HZ SCT030 
     BECMG 2112/2114 13007KT 4000 HZ SCT030 SCT100
       
OPPS 201300Z 05006KT 4000 HZ FEW040 34/22 Q1002
TAF OPPS 200936Z 2012/2118 05012KT 4000 HZ SCT040 SCT100 
     TEMPO 2012/2014 FEW030TCU SCT040 BKN100 
     TEMPO 2014/2018 05015G25KT TS FEW030CB SCT040 BKN100 
     TEMPO 2109/2112 FEW030TCU SCT040 BKN100 
     TEMPO 2112/2115 VCTS FEW030TCU SCT040 BKN100
       
TAF OPRK 200957Z 2012/2106 36010KT 4000 FU FEW120 TN26/2101Z
       
OPRN 201300Z 18008KT 9999 SCT040 32/23 Q1004.7/29.67
TAF OPRN 200930Z 2012/2118 09010KT 400 VCTS FEW030TCU SCT040 SCT100 
     TEMPO 2018/2103 11010G25KT 4000 TSRA FEW030CB SCT040 SCT100 
     BECMG 2104/2106 12010KT 6000 SCT040 SCT100 
     TEMPO 2112/2116 VCTS FEW030TCU SCT040 SCT100
       
OPSK 201300Z 00000KT 4000 HZ NSC 40/26 Q0998 NOSIG
TAF OPSK 201000Z 2012/2112 13007KT 5000 HZ NSC 
     FM2016000 06005KT 4000 HZ NSC 
     BECMG 2105/2107 09005G15KT 5000 HZ NSC
       
OPST 201300Z 13006KT 5000 FU FEW040 32/24 Q1003 NOSIG RH66
TAF OPBW 200957Z 2012/2106 36010KT 4000 FU SCT120 TN27/2101Z 
     PROB30 
     TEMPO 2100/2104 05005KT 2500 FU FEW120
       
TAF OPDG 200957Z 2012/2106 05010KT 5000 FU SCT120 TN27/1701Z
       
TAF OPGD 2012/2112 23005G15KT 4000 HZ SCT020 
     FM201800 23005KT 3000 FU BKN020 
     TEMPO 2100/2104 VRB03KT 2000 FU BKN020 
     FM210500 21008G18KT 5000 HZ SCT020
       
OPKC 201325Z 23006KT 6000 FEW100 31/23 Q1001 NOSIG
TAF OPKC 201000Z 2012/2118 24005G15KT 6000 SCT025 SCT100 
     FM201900 26005G15KT 5000 HZ BKN020 
     BECMG 2105/2107 24005G15KT 6000 SCT025 SCT100
       
OPLA 201330Z 07007KT 7000 SCT040 32/24 Q1002/A29.60
TAF OPLA 200945Z 2012/2118 12008KT 4000 FU FEW040 SCT100 TX34/2110Z TN27/2100Z 
     PROB30 
     TEMPO 2018/2024 03010G20KT 2000 TSRA FEW030CB SCT040 BKN100 FM 210800 10008KT 5000 HZ SCT100
       
OPMT 201300Z 09006KT 3500 FU NSC 36/25 Q1000 NOSIG
TAF OPMT 200957Z 2012/2106 05010KT 4000 FU SCT120 TN29/1701Z
       
OPNH 201200Z 18006KT 5000M HZ NSC 40/24 Q.0998 NOSIG
TAF OPNH 201000Z 2012/2118 16005KT 5000 HZ SCT030 
     FM201800 18007KT 4000 HZ SCT020 SCT100 
     TEMPO 2100/2104 VRB03KT 4000 HZ SCT030 SCT100 
     FM210500 09005G15KT 5000 HZ SCT030 
     BECMG 2112/2114 13007KT 4000 HZ SCT030 SCT100
       
OPPS 201300Z 05006KT 4000 HZ FEW040 34/22 Q1002
TAF OPPS 200936Z 2012/2118 05012KT 4000 HZ SCT040 SCT100 
     TEMPO 2012/2014 FEW030TCU SCT040 BKN100 
     TEMPO 2014/2018 05015G25KT TS FEW030CB SCT040 BKN100 
     TEMPO 2109/2112 FEW030TCU SCT040 BKN100 
     TEMPO 2112/2115 VCTS FEW030TCU SCT040 BKN100
       
TAF OPRK 200957Z 2012/2106 36010KT 4000 FU FEW120 TN26/2101Z
       
OPRN 201300Z 18008KT 9999 SCT040 32/23 Q1004.7/29.67
TAF OPRN 200930Z 2012/2118 09010KT 400 VCTS FEW030TCU SCT040 SCT100 
     TEMPO 2018/2103 11010G25KT 4000 TSRA FEW030CB SCT040 SCT100 
     BECMG 2104/2106 12010KT 6000 SCT040 SCT100 
     TEMPO 2112/2116 VCTS FEW030TCU SCT040 SCT100
       
OPSK 201300Z 00000KT 4000 HZ NSC 40/26 Q0998 NOSIG
TAF OPSK 201000Z 2012/2112 13007KT 5000 HZ NSC 
     FM2016000 06005KT 4000 HZ NSC 
     BECMG 2105/2107 09005G15KT 5000 HZ NSC
       
OPST 201300Z 13006KT 5000 FU FEW040 32/24 Q1003 NOSIG RH66
TAF OPDG 200957Z 2012/2106 05010KT 5000 FU SCT120 TN27/1701Z
       
TAF OPGD 2012/2112 23005G15KT 4000 HZ SCT020 
     FM201800 23005KT 3000 FU BKN020 
     TEMPO 2100/2104 VRB03KT 2000 FU BKN020 
     FM210500 21008G18KT 5000 HZ SCT020
       
OPKC 201325Z 23006KT 6000 FEW100 31/23 Q1001 NOSIG
TAF OPKC 201000Z 2012/2118 24005G15KT 6000 SCT025 SCT100 
     FM201900 26005G15KT 5000 HZ BKN020 
     BECMG 2105/2107 24005G15KT 6000 SCT025 SCT100
       
OPMT 201300Z 09006KT 3500 FU NSC 36/25 Q1000 NOSIG
TAF OPMT 200957Z 2012/2106 05010KT 4000 FU SCT120 TN29/1701Z
       
OPNH 201200Z 18006KT 5000M HZ NSC 40/24 Q.0998 NOSIG
TAF OPNH 201000Z 2012/2118 16005KT 5000 HZ SCT030 
     FM201800 18007KT 4000 HZ SCT020 SCT100 
     TEMPO 2100/2104 VRB03KT 4000 HZ SCT030 SCT100 
     FM210500 09005G15KT 5000 HZ SCT030 
     BECMG 2112/2114 13007KT 4000 HZ SCT030 SCT100
       
OPPS 201300Z 05006KT 4000 HZ FEW040 34/22 Q1002
TAF OPPS 200936Z 2012/2118 05012KT 4000 HZ SCT040 SCT100 
     TEMPO 2012/2014 FEW030TCU SCT040 BKN100 
     TEMPO 2014/2018 05015G25KT TS FEW030CB SCT040 BKN100 
     TEMPO 2109/2112 FEW030TCU SCT040 BKN100 
     TEMPO 2112/2115 VCTS FEW030TCU SCT040 BKN100
       
TAF OPRK 200957Z 2012/2106 36010KT 4000 FU FEW120 TN26/2101Z
       
OPSK 201300Z 00000KT 4000 HZ NSC 40/26 Q0998 NOSIG
TAF OPSK 201000Z 2012/2112 13007KT 5000 HZ NSC 
     FM2016000 06005KT 4000 HZ NSC 
     BECMG 2105/2107 09005G15KT 5000 HZ NSC